ARIANE 42P DEB, 44507

Orbit data source: Space-Track

ARIANE 42P DEB, 44507 is space debris in LEO originally from a launch on Mon, 10 Aug 1992 UTC launched from the French Guiana (FRGUI). Debris objects in space refer to the collection of defunct objects orbiting the Earth. Examples of debris include non-operational satellites, rocket bodies, and fragments generated from explosions, collisions, or faulty payload assembly.

Loading next visibility...
Identifier
44507, 1992-052E
Orbit
LEO
Country
Flag of FRFR
Related business
Manufacturer
ArianeGroup
Mission
Spacecraft
Bus & Motor
Unknown
Mass
Unknown
Launch date (UTC)
1992-08-10 (33 years ago)
Launch vehicle
Unknown
Launch site
French Guiana (FRGUI)
Object type
Payload
Rocket body
Debris
Shape & HBR
Unknown
Radar Cross Section
Small (<0.1 m²)

Expand to show TLE details & history
Last TLE update: 1 day ago

TLE from 1 day ago
0 ARIANE 42P DEB
1 44507U 92052E   25259.59381305  .00001747  00000-0  68455-2 0  9994
2 44507  66.0059  88.0940 0138734  60.3482 301.1270 12.87765776285641
Epoch: 2025-09-16T14:15Z
TLE epoch observation values (Epoch: 2025-09-16T14:15:05.447Z)
Latitude
-0.00002°
Longitude
-121.46058°
Altitude
1,258.269 km
Speed
7.252 km/s
True Right ascension
05h 52m 22s
True Declination
0° 00' 00"
Sunlit
Object was in daylight at epoch
Visualization orbit readout
Latitude
Unknown
Longitude
Unknown
Altitude
Unknown
Speed
Unknown
Apparent Right ascension
Unknown
Apparent Declination
Unknown
Sunlit
N/A
Visualization observer readout
Local Sidereal Time
15:39:19
Azimuth
Unknown
Elevation
Unknown
Doppler factor
Unknown
Orbital elements
Apogee altitude
1,415.611 km
Perigee altitude
1,202.319 km
Semi-major axis
7,687.102 km
Eccentricity
0.01387
Inclination
66.0059°
RAAN
88.094°
Arg. of periapsis
60.3482°
True anomaly
299.75394°
Mean anomaly
301.127°
Eccentric anomaly
300.44169°
Mean motion
3.22032 °/min
Orbital period
111.79 mins
BSTAR
0.0068455
Loading maneuver chart data...
Computing Atmospheric mass density...
Loading historical data...
Loading historical data...
Loading historical data...
Loading historical data...
Loading historical data...
Loading historical data...
Loading historical data...

Documentation

Showing up to 5 results
|